Regional Weather Roundup
Issued by NWS

Home | Current Version | Previous Version | Graphics & Text | Print | Product List | Glossary On
Versions: 1 2 3 4 5 6 7 8 9 10 11 12 13 14 15 16 17 18 19 20 21 22 23 24 25 26 27 28 29 30 31 32 33 34 35 36 37 38 39 40 41 42 43 44 45 46 47 48 49 50
000
ASUS43 KOAX 250702
RWRNE

WEATHER ROUNDUP FOR NEBRASKA
NATIONAL WEATHER SERVICE OMAHA NE
100 AM CST THU DEC 25 2014

NOTES: SATELLITE DATA IS BEING USED TO AUGMENT CLOUD COVER ABOVE
       12000 FEET.
       "FAIR" INDICATES FEW OR NO CLOUDS BELOW 12,000 FEET WITH NO
       SIGNIFICANT WEATHER AND/OR OBSTRUCTIONS TO VISIBILITY.

  * THESE STATIONS DO NOT REPORT WEATHER SUCH AS RAIN...SNOW OR FOG.

NEZ001>004-019>022-054>056-250800-
NEBRASKA PANHANDLE

CITY           SKY/WX    TMP DP  RH WIND       PRES   REMARKS
SCOTTSBLUFF    CLOUDY    35  28  75 E3        29.43F
ALLIANCE       CLOUDY    28  23  81 NW3       29.43F
CHADRON        CLOUDY    26  21  81 S3        29.43F
SIDNEY         CLOUDY    30  23  75 W7        29.46F WCI  23
$$

NEZ057>060-069>072-079>082-250800-
SOUTHWEST NEBRASKA

CITY           SKY/WX    TMP DP  RH WIND       PRES   REMARKS
NORTH PLATTE   CLOUDY    27  22  81 W3        29.50F
IMPERIAL       CLOUDY    35  20  54 S9        29.48F WCI  28
MCCOOK         CLOUDY    34  21  59 SW5       29.51F WCI  30
$$

NEZ005>010-023>029-035>040-094-250800-
NORTH CENTRAL NEBRASKA

CITY           SKY/WX    TMP DP  RH WIND       PRES   REMARKS
VALENTINE      CLOUDY    32  27  81 SW3       29.45F
AINSWORTH      CLOUDY    33  27  76 SW8       29.46F WCI  26
BROKEN BOW     CLOUDY    30  24  78 CALM      29.50F
ORD            MOCLDY    28  23  81 SE3       29.51F
$$

NEZ041-046>049-061>064-073>077-083>087-250800-
SOUTH CENTRAL NEBRASKA

CITY           SKY/WX    TMP DP  RH WIND       PRES   REMARKS
GRAND ISLAND   MOCLDY    32  21  64 S14       29.57S WCI  22
HASTINGS       PTCLDY    32  20  61 S9        29.57F WCI  24
KEARNEY *      MOCLDY    32  19  59 S10       29.55F WCI  24
$$

NEZ011>018-030>034-042>045-250800-
NORTHEAST NEBRASKA

CITY           SKY/WX    TMP DP  RH WIND       PRES   REMARKS
NORFOLK        PTCLDY    30  23  75 S12       29.54F WCI  20
BLAIR          CLEAR     30  27  90 S10       29.62F WCI  21
COLUMBUS *     PTCLDY    30  21  69 S5        29.59F WCI  25
TEKAMAH        CLEAR     30  27  88 S7        29.64F WCI  23
$$

NEZ050>053-065>068-078-088>093-250800-
SOUTHEAST NEBRASKA

CITY           SKY/WX    TMP DP  RH WIND       PRES   REMARKS
LINCOLN        PTCLDY    30  25  81 S10       29.64F WCI  21
OMAHA EPPLEY   PTCLDY    30  27  88 S12       29.67F WCI  20
FALLS CITY     CLEAR     30  27  88 S15       29.72F WCI  19
NEBRASKA CITY  CLEAR     30  29  96 S13       29.69S WCI  20
$$

NEZ044-045-051>053-067-250800-
OMAHA AREA

CITY           SKY/WX    TMP DP  RH WIND       PRES   REMARKS
OMAHA EPPLEY   PTCLDY    30  27  88 S12       29.67F WCI  20
BLAIR          CLEAR     30  27  90 S10       29.62F WCI  21
OFFUTT AFB     CLEAR     29  27  93 S8        29.66F WCI  21
WAHOO          FAIR      28  25  89 S7        29.63F WCI  20
$$


USA.gov is the U.S. government's official web portal to all federal, state and local government web resources and services.